When you browse on this site, cookies collect data to enhance your experience and personalize the content and advertising you see.
Visit our Privacy Policy to learn more. By continuing to use the site, you agree to this use of cookies and data.
  • In Romania
  • List of Countries
  • For 7 days
  • Water Temperature
  • Satellite Maps
  • Weather Map
  • Weather Widgets
  • user-avatar
    Login

    Hourly Weather Bahawalpur

    Today, 20 July, Saturday

    Time Temperature Precipitation Wind Pressure Humidity
    00:00 +39°C° 0.3 mm 3 mps 740 mmHg 43%
    01:00 +38°C° 0.3 mm 3 mps 740 mmHg 44%
    02:00 +38°C° 0.3 mm 3 mps 740 mmHg 45%
    03:00 +37°C° 0.4 mm 2 mps 740 mmHg 46%
    04:00 +37°C° 0.4 mm 2 mps 740 mmHg 47%
    05:00 +37°C° 0.4 mm 2 mps 740 mmHg 48%
    06:00 +37°C° 0.1 mm 2 mps 740 mmHg 45%
    07:00 +38°C° 0.1 mm 2 mps 741 mmHg 43%
    08:00 +39°C° 0.1 mm 2 mps 741 mmHg 41%
    09:00 +40°C° 0 mm 2 mps 741 mmHg 38%
    10:00 +41°C° 0 mm 2 mps 741 mmHg 35%
    11:00 +42°C° 0 mm 2 mps 741 mmHg 33%
    12:00 +43°C° 0.1 mm 2 mps 741 mmHg 31%
    13:00 +43°C° 0.1 mm 2 mps 740 mmHg 30%
    14:00 +45°C° 0.1 mm 2 mps 740 mmHg 28%
    15:00 +45°C° 0 mm 2 mps 739 mmHg 28%
    16:00 +45°C° 0 mm 2 mps 739 mmHg 28%
    17:00 +45°C° 0 mm 2 mps 738 mmHg 28%
    18:00 +44°C° 0.2 mm 3 mps 739 mmHg 31%
    19:00 +43°C° 0.2 mm 4 mps 739 mmHg 34%
    20:00 +42°C° 0.2 mm 5 mps 739 mmHg 37%
    21:00 +41°C° 0 mm 4 mps 739 mmHg 38%
    22:00 +40°C° 0 mm 3 mps 739 mmHg 39%
    23:00 +40°C° 0 mm 2 mps 739 mmHg 40%

    Tomorrow, 21 July, Sunday

    Time Temperature Precipitation Wind Pressure Humidity
    00:00 +39°C° 0.1 mm 2 mps 739 mmHg 40%
    01:00 +39°C° 0.1 mm 2 mps 739 mmHg 40%
    02:00 +38°C° 0.1 mm 2 mps 739 mmHg 41%
    03:00 +38°C° 0.5 mm 2 mps 739 mmHg 42%
    04:00 +37°C° 0.5 mm 2 mps 739 mmHg 43%
    05:00 +37°C° 0.5 mm 2 mps 739 mmHg 45%
    06:00 +37°C° 0.1 mm 1 mps 739 mmHg 42%
    07:00 +39°C° 0.1 mm 1 mps 739 mmHg 39%
    08:00 +40°C° 0.1 mm 1 mps 740 mmHg 37%
    09:00 +41°C° 0 mm 2 mps 740 mmHg 33%
    10:00 +42°C° 0 mm 2 mps 740 mmHg 30%
    11:00 +45°C° 0 mm 3 mps 740 mmHg 27%
    12:00 +45°C° 0 mm 3 mps 739 mmHg 25%
    13:00 +46°C° 0 mm 3 mps 739 mmHg 24%
    14:00 +47°C° 0 mm 3 mps 739 mmHg 23%
    15:00 +47°C° 0 mm 3 mps 738 mmHg 22%
    16:00 +47°C° 0 mm 3 mps 737 mmHg 22%
    17:00 +47°C° 0 mm 3 mps 737 mmHg 21%
    18:00 +46°C° 0 mm 3 mps 737 mmHg 23%
    19:00 +46°C° 0 mm 3 mps 737 mmHg 24%
    20:00 +45°C° 0 mm 2 mps 737 mmHg 25%
    21:00 +45°C° 0 mm 2 mps 737 mmHg 26%
    22:00 +43°C° 0 mm 2 mps 737 mmHg 27%
    23:00 +43°C° 0 mm 2 mps 737 mmHg 28%

    Day after tomorrow, 22 July, Monday

    Time Temperature Precipitation Wind Pressure Humidity
    00:00 +42°C° 0 mm 2 mps 737 mmHg 28%
    01:00 +43°C° 0 mm 3 mps 737 mmHg 29%
    02:00 +42°C° 0 mm 3 mps 737 mmHg 29%
    03:00 +42°C° 0 mm 3 mps 737 mmHg 30%
    04:00 +41°C° 0 mm 4 mps 737 mmHg 30%
    05:00 +41°C° 0 mm 4 mps 737 mmHg 30%
    06:00 +41°C° 0 mm 5 mps 737 mmHg 30%
    07:00 +42°C° 0 mm 6 mps 737 mmHg 29%
    08:00 +43°C° 0 mm 7 mps 738 mmHg 28%
    09:00 +45°C° 0 mm 7 mps 738 mmHg 25%
    10:00 +47°C° 0 mm 7 mps 738 mmHg 22%
    11:00 +49°C° 0 mm 7 mps 738 mmHg 20%
    12:00 +50°C° 0 mm 7 mps 737 mmHg 19%
    13:00 +51°C° 0 mm 6 mps 737 mmHg 18%
    14:00 +52°C° 0 mm 6 mps 736 mmHg 17%
    15:00 +52°C° 0 mm 6 mps 736 mmHg 17%
    16:00 +51°C° 0 mm 6 mps 735 mmHg 17%
    17:00 +50°C° 0 mm 5 mps 735 mmHg 17%
    18:00 +50°C° 0 mm 5 mps 735 mmHg 18%
    19:00 +49°C° 0 mm 4 mps 735 mmHg 19%
    20:00 +48°C° 0 mm 4 mps 735 mmHg 21%
    21:00 +47°C° 0 mm 4 mps 735 mmHg 21%
    22:00 +47°C° 0 mm 5 mps 735 mmHg 22%
    23:00 +46°C° 0 mm 5 mps 736 mmHg 23%

    23 July, Tuesday

    Time Temperature Precipitation Wind Pressure Humidity
    00:00 +45°C° 0 mm 5 mps 735 mmHg 25%
    01:00 +45°C° 0 mm 6 mps 735 mmHg 26%
    02:00 +44°C° 0 mm 6 mps 735 mmHg 28%
    03:00 +42°C° 0 mm 6 mps 735 mmHg 29%
    04:00 +42°C° 0 mm 6 mps 736 mmHg 31%
    05:00 +41°C° 0 mm 6 mps 736 mmHg 33%
    06:00 +41°C° 0 mm 7 mps 736 mmHg 32%
    07:00 +43°C° 0 mm 7 mps 737 mmHg 32%
    08:00 +43°C° 0 mm 8 mps 737 mmHg 31%
    09:00 +44°C° 0 mm 8 mps 737 mmHg 28%
    10:00 +46°C° 0 mm 8 mps 737 mmHg 26%
    11:00 +49°C° 0 mm 8 mps 737 mmHg 23%
    12:00 +50°C° 0 mm 8 mps 736 mmHg 21%
    13:00 +51°C° 0 mm 7 mps 736 mmHg 19%
    14:00 +52°C° 0 mm 7 mps 735 mmHg 18%
    15:00 +52°C° 0 mm 6 mps 735 mmHg 17%
    16:00 +52°C° 0 mm 6 mps 735 mmHg 17%
    17:00 +52°C° 0 mm 6 mps 734 mmHg 17%
    18:00 +51°C° 0 mm 6 mps 734 mmHg 18%
    19:00 +49°C° 0 mm 5 mps 734 mmHg 19%
    20:00 +48°C° 0 mm 5 mps 734 mmHg 19%
    21:00 +48°C° 0 mm 5 mps 734 mmHg 20%
    22:00 +47°C° 0 mm 5 mps 734 mmHg 20%
    23:00 +47°C° 0 mm 6 mps 734 mmHg 21%

    24 July, Wednesday

    Time Temperature Precipitation Wind Pressure Humidity
    00:00 +46°C° 0 mm 6 mps 734 mmHg 23%
    01:00 +45°C° 0 mm 7 mps 734 mmHg 24%
    02:00 +44°C° 0 mm 8 mps 734 mmHg 26%
    03:00 +44°C° 0 mm 8 mps 734 mmHg 28%
    04:00 +43°C° 0 mm 8 mps 734 mmHg 30%
    05:00 +41°C° 0 mm 8 mps 734 mmHg 32%
    06:00 +43°C° 0 mm 8 mps 735 mmHg 30%
    07:00 +43°C° 0 mm 8 mps 735 mmHg 29%
    08:00 +44°C° 0 mm 9 mps 735 mmHg 27%
    09:00 +45°C° 0 mm 9 mps 735 mmHg 25%
    10:00 +48°C° 0 mm 9 mps 735 mmHg 23%
    11:00 +50°C° 0 mm 9 mps 735 mmHg 20%
    12:00 +51°C° 0 mm 9 mps 735 mmHg 19%
    13:00 +53°C° 0 mm 9 mps 734 mmHg 18%
    14:00 +53°C° 0 mm 9 mps 734 mmHg 16%
    15:00 +52°C° 0 mm 8 mps 733 mmHg 16%
    16:00 +52°C° 0 mm 8 mps 733 mmHg 16%
    17:00 +52°C° 0 mm 8 mps 733 mmHg 16%
    18:00 +51°C° 0 mm 7 mps 733 mmHg 17%
    19:00 +50°C° 0 mm 7 mps 733 mmHg 18%
    20:00 +48°C° 0 mm 6 mps 733 mmHg 19%
    21:00 +49°C° 0 mm 7 mps 733 mmHg 20%
    22:00 +48°C° 0 mm 8 mps 734 mmHg 22%
    23:00 +47°C° 0 mm 9 mps 734 mmHg 24%

    25 July, Thursday

    Time Temperature Precipitation Wind Pressure Humidity
    00:00 +45°C° 0 mm 9 mps 734 mmHg 27%
    01:00 +44°C° 0 mm 9 mps 734 mmHg 30%
    02:00 +43°C° 0 mm 9 mps 734 mmHg 33%
    03:00 +42°C° 0 mm 9 mps 734 mmHg 35%
    04:00 +40°C° 0 mm 9 mps 734 mmHg 37%
    05:00 +39°C° 0 mm 9 mps 734 mmHg 38%
    06:00 +39°C° 0 mm 9 mps 735 mmHg 38%
    07:00 +39°C° 0 mm 9 mps 735 mmHg 37%
    08:00 +40°C° 0 mm 10 mps 735 mmHg 36%
    09:00 +42°C° 0 mm 10 mps 735 mmHg 33%
    10:00 +44°C° 0 mm 10 mps 735 mmHg 30%
    11:00 +45°C° 0 mm 10 mps 735 mmHg 27%
    12:00 +48°C° 0 mm 9 mps 735 mmHg 25%
    13:00 +49°C° 0 mm 9 mps 734 mmHg 23%
    14:00 +50°C° 0 mm 8 mps 734 mmHg 21%
    15:00 +50°C° 0 mm 8 mps 734 mmHg 21%
    16:00 +50°C° 0 mm 8 mps 733 mmHg 21%
    17:00 +50°C° 0 mm 7 mps 733 mmHg 21%
    18:00 +49°C° 0 mm 7 mps 733 mmHg 22%
    19:00 +47°C° 0 mm 6 mps 733 mmHg 24%
    20:00 +46°C° 0 mm 5 mps 733 mmHg 25%
    21:00 +45°C° 0 mm 7 mps 734 mmHg 28%
    22:00 +44°C° 0 mm 8 mps 734 mmHg 31%
    23:00 +43°C° 0 mm 9 mps 734 mmHg 34%
    Show more